N9AZZ Weather Reports


Display with metric or nautical units.
time (UTC)temp
F
wind
direction
speed
MPH
gust
MPH
rain 1hr
in
rain 24hr
in
rain mn
in
humidity
%
barometer
mb
20260905234543 91 0 0.0 1.0 0.00 0.00 0.00 62 1011.6
20260905234017 91 0 0.0 1.0 0.00 0.00 0.00 63 1011.4
20260905233517 92 0 0.0 1.0 0.00 0.00 0.00 61 1011.6
20260905233034 92 0 0.0 2.0 0.00 0.00 0.00 61 1011.6
20260905232517 93 0 0.0 2.0 0.00 0.00 0.00 60 1011.9
20260905232019 93 259 0.0 1.0 0.00 0.00 0.00 59 1011.8
20260905231535 94 237 0.0 1.0 0.00 0.00 0.00 58 1011.7
20260905231015 94 0 0.0 1.0 0.00 0.00 0.00 58 1011.6
20260905230521 95 0 0.0 2.0 0.00 0.00 0.00 58 1011.6
20260905230042 95 0 0.0 2.0 0.00 0.00 0.00 58 1011.6
20260905225516 96 236 0.0 6.0 0.00 0.00 0.00 56 1011.5
20260905225019 96 307 1.0 6.0 0.00 0.00 0.00 56 1011.5
20260905224537 96 234 1.0 8.0 0.00 0.00 0.00 55 1011.4
20260905224020 96 265 2.0 8.0 0.00 0.00 0.00 55 1011.2
20260905223522 97 231 0.0 4.0 0.00 0.00 0.00 56 1011.3
20260905223037 97 288 1.0 4.0 0.00 0.00 0.00 54 1011.4
20260905222520 97 308 1.0 3.0 0.00 0.00 0.00 53 1011.5
20260905222016 97 243 0.0 3.0 0.00 0.00 0.00 54 1011.4
20260905221535 97 311 1.0 3.0 0.00 0.00 0.00 51 1011.3
20260905221019 97 34 1.0 3.0 0.00 0.00 0.00 53 1011.1
20260905220523 97 0 0.0 1.0 0.00 0.00 0.00 57 1011.1
20260905215524 98 0 0.0 1.0 0.00 0.00 0.00 54 1011.2
20260905215019 99 0 0.0 1.0 0.00 0.00 0.00 56 1011.2
20260905214018 99 30 0.0 1.0 0.00 0.00 0.00 56 1011.3
20260905213516 99 0 0.0 1.0 0.00 0.00 0.00 53 1011.3
20260905212518 99 0 0.0 2.0 0.00 0.00 0.00 53 1011.3
20260905212018 99 0 0.0 2.0 0.00 0.00 0.00 52 1011.2
20260905211023 99 316 1.0 2.0 0.00 0.00 0.00 50 1011.4
20260905210521 100 0 0.0 1.0 0.00 0.00 0.00 51 1011.5
20260905205516 99 0 0.0 3.0 0.00 0.00 0.00 52 1011.6
20260905205021 99 307 0.0 3.0 0.00 0.00 0.00 53 1011.7
20260905204537 99 226 0.0 3.0 0.00 0.00 0.00 52 1011.7
20260905204016 98 314 0.0 2.0 0.00 0.00 0.00 51 1011.7
20260905203516 98 301 1.0 2.0 0.00 0.00 0.00 53 1011.8
20260905202521 98 0 0.0 0.0 0.00 0.00 0.00 57 1011.9
20260905202020 99 0 0.0 1.0 0.00 0.00 0.00 56 1011.9
20260905201019 100 6 1.0 3.0 0.00 0.00 0.00 52 1011.9
20260905200521 100 0 0.0 2.0 0.00 0.00 0.00 54 1012.0
20260905195525 100 1 0.0 1.0 0.00 0.00 0.00 51 1012.0
20260905195022 101 345 0.0 2.0 0.00 0.00 0.00 53 1012.1
20260905194018 102 19 1.0 3.0 0.00 0.00 0.00 50 1012.3
20260905193516 102 50 0.0 4.0 0.00 0.00 0.00 50 1012.3
20260905193038 102 0 1.0 4.0 0.00 0.00 0.00 47 1012.3
20260905192518 102 315 0.0 2.0 0.00 0.00 0.00 49 1012.4
20260905192025 101 210 0.0 5.0 0.00 0.00 0.00 50 1012.4
20260905191021 101 233 0.0 3.0 0.00 0.00 0.00 51 1012.6
20260905190520 101 0 0.0 3.0 0.00 0.00 0.00 49 1012.7
20260905185521 102 300 1.0 3.0 0.00 0.00 0.00 47 1012.9
20260905185020 102 306 1.0 3.0 0.00 0.00 0.00 50 1013.1
20260905184019 102 216 0.0 3.0 0.00 0.00 0.00 50 1013.0
20260905183519 102 218 1.0 4.0 0.00 0.00 0.00 51 1013.1
20260905183033 102 45 0.0 4.0 0.00 0.00 0.00 53 1013.2
20260905182521 102 315 1.0 4.0 0.00 0.00 0.00 51 1013.2
20260905182021 101 0 1.0 5.0 0.00 0.00 0.00 53 1013.2
20260905181019 101 15 0.0 5.0 0.00 0.00 0.00 52 1013.4
20260905180519 101 289 2.0 5.0 0.00 0.00 0.00 48 1013.4
20260905180037 101 313 1.0 6.0 0.00 0.00 0.00 51 1013.5
20260905175524 101 326 1.0 6.0 0.00 0.00 0.00 52 1013.5
20260905175021 101 248 2.0 3.0 0.00 0.00 0.00 51 1013.7
20260905174533 101 306 1.0 4.0 0.00 0.00 0.00 56 1013.6
20260905174021 100 292 1.0 4.0 0.00 0.00 0.00 54 1013.6
20260905173521 100 0 0.0 3.0 0.00 0.00 0.00 53 1013.6
20260905172519 100 300 1.0 3.0 0.00 0.00 0.00 51 1013.7
20260905172020 100 0 0.0 3.0 0.00 0.00 0.00 53 1013.6
20260905171539 100 272 1.0 6.0 0.00 0.00 0.00 51 1013.8
20260905171017 100 275 1.0 7.0 0.00 0.00 0.00 51 1013.9
20260905170516 100 296 1.0 7.0 0.00 0.00 0.00 54 1014.0
20260905170035 100 211 2.0 7.0 0.00 0.00 0.00 53 1014.0
20260905165019 99 288 1.0 4.0 0.00 0.00 0.00 53 1014.3
20260905164021 99 216 1.0 3.0 0.00 0.00 0.00 59 1014.4
20260905163521 98 0 0.0 4.0 0.00 0.00 0.00 57 1014.5
20260905163035 97 0 1.0 4.0 0.00 0.00 0.00 59 1014.5
20260905162519 97 302 2.0 4.0 0.00 0.00 0.00 56 1014.6
20260905162018 98 341 2.0 4.0 0.00 0.00 0.00 56 1014.7
20260905161537 97 52 0.0 3.0 0.00 0.00 0.00 59 1014.7
20260905161021 97 300 1.0 3.0 0.00 0.00 0.00 57 1014.7
20260905160521 97 298 1.0 4.0 0.00 0.00 0.00 56 1014.9
20260905155521 97 60 1.0 5.0 0.00 0.00 0.00 58 1014.9
20260905155020 97 39 1.0 2.0 0.00 0.00 0.00 62 1014.8
20260905154019 96 252 0.0 3.0 0.00 0.00 0.00 61 1014.9
20260905153517 95 323 0.0 3.0 0.00 0.00 0.00 62 1014.9
20260905152521 95 273 1.0 2.0 0.00 0.00 0.00 61 1014.9
20260905152021 95 47 0.0 2.0 0.00 0.00 0.00 63 1014.8
20260905151021 94 323 1.0 3.0 0.00 0.00 0.00 65 1014.8
20260905150521 94 0 0.0 2.0 0.00 0.00 0.00 68 1014.7
20260905145516 94 237 0.0 2.0 0.00 0.00 0.00 65 1014.8
20260905145019 93 0 0.0 3.0 0.00 0.00 0.00 68 1014.8
20260905144538 92 11 0.0 4.0 0.00 0.00 0.00 68 1014.8
20260905144018 92 0 1.0 4.0 0.00 0.00 0.00 67 1014.7
20260905143516 92 358 1.0 2.0 0.00 0.00 0.00 67 1014.7
20260905142520 91 221 0.0 2.0 0.00 0.00 0.00 69 1014.8
20260905142018 91 0 0.0 2.0 0.00 0.00 0.00 68 1014.9
20260905141019 90 0 0.0 2.0 0.00 0.00 0.00 73 1015.1
20260905140516 90 0 0.0 1.0 0.00 0.00 0.00 76 1015.0
20260905140034 88 0 0.0 1.0 0.00 0.00 0.00 80 1015.1
20260905135521 87 0 0.0 1.0 0.00 0.00 0.00 80 1015.1
20260905135021 86 0 0.0 1.0 0.00 0.00 0.00 84 1015.2
20260905134021 83 0 0.0 1.0 0.00 0.00 0.00 90 1015.0
20260905133520 81 0 0.0 1.0 0.00 0.00 0.00 93 1015.2
20260905132519 79 0 0.0 0.0 0.00 0.00 0.00 97 1015.2
20260905132020 79 0 0.0 0.0 0.00 0.00 0.00 98 1015.0
20260905131553 78 0 0.0 0.0 0.00 0.00 0.00 98 1015.1
20260905131019 77 0 0.0 0.0 0.00 0.00 0.00 97 1015.2
20260905130517 77 0 0.0 0.0 0.00 0.00 0.00 97 1015.2
20260905125521 76 0 0.0 0.0 0.00 0.00 0.00 97 1015.0
20260905125019 76 0 0.0 0.0 0.00 0.00 0.00 97 1014.9
20260905124020 75 0 0.0 0.0 0.00 0.00 0.00 96 1014.9
20260905123516 75 0 0.0 0.0 0.00 0.00 0.00 96 1015.0
20260905122523 75 0 0.0 0.0 0.00 0.00 0.00 96 1014.9
20260905121539 74 0 0.0 0.0 0.00 0.00 0.00 96 1014.6
20260905121018 74 0 0.0 0.0 0.00 0.00 0.00 96 1014.6
20260905120520 74 0 0.0 0.0 0.00 0.00 0.00 96 1014.7
20260905120041 74 0 0.0 1.0 0.00 0.00 0.00 96 1014.6
20260905115517 74 0 0.0 1.0 0.00 0.00 0.00 96 1014.6
20260905115024 74 0 0.0 1.0 0.00 0.00 0.00 96 1014.5
20260905114533 74 0 0.0 0.0 0.00 0.00 0.00 96 1014.5
20260905114019 74 0 0.0 0.0 0.00 0.00 0.00 96 1014.3
20260905113519 74 0 0.0 0.0 0.00 0.00 0.00 96 1014.4
20260905113035 74 0 0.0 0.0 0.00 0.00 0.00 95 1014.4
20260905112516 74 0 0.0 0.0 0.00 0.00 0.00 95 1014.4
20260905111557 74 0 0.0 0.0 0.00 0.00 0.00 95 1014.2
20260905111019 75 0 0.0 0.0 0.00 0.00 0.00 95 1014.2
20260905110518 75 0 0.0 0.0 0.00 0.00 0.00 95 1014.1
20260905110032 74 0 0.0 0.0 0.00 0.00 0.00 95 1014.3
20260905105517 75 0 0.0 0.0 0.00 0.00 0.00 94 1014.2
20260905105020 75 0 0.0 0.0 0.00 0.00 0.00 94 1014.2
20260905104534 75 0 0.0 0.0 0.00 0.00 0.00 94 1014.2
20260905104016 75 0 0.0 0.0 0.00 0.00 0.00 94 1014.1
20260905103519 75 0 0.0 0.0 0.00 0.00 0.00 94 1014.1
20260905103037 75 0 0.0 0.0 0.00 0.00 0.00 94 1014.0
20260905102518 75 0 0.0 0.0 0.00 0.00 0.00 94 1014.0
20260905101536 75 0 0.0 0.0 0.00 0.00 0.00 94 1014.0
20260905101015 75 0 0.0 0.0 0.00 0.00 0.00 94 1014.0
20260905100519 75 0 0.0 0.0 0.00 0.00 0.00 94 1014.1
20260905100033 75 0 0.0 0.0 0.00 0.00 0.00 94 1014.0
20260905095520 76 0 0.0 0.0 0.00 0.00 0.00 94 1013.9
20260905095020 76 0 0.0 0.0 0.00 0.00 0.00 94 1013.9
20260905094533 76 0 0.0 0.0 0.00 0.00 0.00 94 1013.9
20260905094016 76 0 0.0 0.0 0.00 0.00 0.00 94 1014.1
20260905093517 76 0 0.0 0.0 0.00 0.00 0.00 94 1014.1
20260905093040 76 0 0.0 0.0 0.00 0.00 0.00 94 1014.0
20260905092518 76 0 0.0 0.0 0.00 0.00 0.00 94 1013.9
20260905091533 76 0 0.0 0.0 0.00 0.00 0.00 93 1013.9
20260905091015 76 0 0.0 0.0 0.00 0.00 0.00 93 1013.9
20260905090519 76 0 0.0 0.0 0.00 0.00 0.00 93 1013.9
20260905085518 76 0 0.0 0.0 0.00 0.00 0.00 93 1013.8
20260905085016 76 0 0.0 0.0 0.00 0.00 0.00 92 1013.8
20260905084533 76 0 0.0 0.0 0.00 0.00 0.00 92 1013.9
20260905084019 76 0 0.0 0.0 0.00 0.00 0.00 93 1013.7
20260905083517 76 0 0.0 0.0 0.00 0.00 0.00 93 1013.9
20260905083035 76 0 0.0 0.0 0.00 0.00 0.00 92 1013.9
20260905082517 76 0 0.0 0.0 0.00 0.00 0.00 92 1014.0
20260905081535 76 0 0.0 0.0 0.00 0.00 0.00 92 1013.9
20260905081023 76 0 0.0 0.0 0.00 0.00 0.00 92 1014.0
20260905080520 76 0 0.0 0.0 0.00 0.00 0.00 92 1014.1
20260905080034 76 0 0.0 0.0 0.00 0.00 0.00 92 1014.0
20260905075520 76 0 0.0 0.0 0.00 0.00 0.00 93 1014.0
20260905075016 76 0 0.0 0.0 0.00 0.00 0.00 93 1014.0
20260905074537 77 0 0.0 0.0 0.00 0.00 0.00 93 1013.9
20260905074019 77 0 0.0 0.0 0.00 0.00 0.00 93 1013.8
20260905073518 77 0 0.0 0.0 0.00 0.00 0.00 93 1014.0
20260905073054 77 0 0.0 0.0 0.00 0.00 0.00 93 1014.1
20260905072518 77 0 0.0 0.0 0.00 0.00 0.00 93 1014.1
20260905071542 77 0 0.0 0.0 0.00 0.00 0.00 93 1013.9
20260905071018 77 0 0.0 0.0 0.00 0.00 0.00 93 1014.0
20260905070518 77 0 0.0 0.0 0.00 0.00 0.00 93 1014.0
20260905070035 77 0 0.0 0.0 0.00 0.00 0.00 93 1014.0
20260905065519 77 0 0.0 0.0 0.00 0.00 0.00 93 1014.0
20260905065022 77 0 0.0 0.0 0.00 0.00 0.00 93 1013.9
20260905064018 78 0 0.0 0.0 0.00 0.00 0.00 93 1014.2
20260905063517 78 0 0.0 0.0 0.00 0.00 0.00 93 1014.0
20260905063034 78 0 0.0 0.0 0.00 0.00 0.00 93 1014.1
20260905062518 78 0 0.0 0.0 0.00 0.00 0.00 93 1014.1
20260905061535 78 0 0.0 1.0 0.00 0.00 0.00 93 1014.2
20260905061017 78 0 0.0 0.0 0.00 0.00 0.00 93 1014.2
20260905060520 78 0 0.0 0.0 0.00 0.00 0.00 93 1014.3
20260905060040 78 0 0.0 0.0 0.00 0.00 0.00 93 1014.3
20260905055520 78 0 0.0 0.0 0.00 0.00 0.00 93 1014.1
20260905055019 78 0 0.0 0.0 0.00 0.00 0.00 92 1014.3
20260905054020 78 0 0.0 0.0 0.00 0.00 0.00 92 1014.4
20260905053516 78 0 0.0 0.0 0.00 0.00 0.00 92 1014.4
20260905053048 79 0 0.0 0.0 0.00 0.00 0.00 92 1014.3
20260905052515 79 0 0.0 0.0 0.00 0.00 0.00 92 1014.4
20260905051533 79 0 0.0 0.0 0.00 0.00 0.00 92 1014.4
20260905051020 79 0 0.0 0.0 0.00 0.00 0.00 92 1014.5
20260905050520 79 0 0.0 0.0 0.00 0.00 0.00 91 1014.4
20260905050036 79 0 0.0 0.0 0.00 0.00 0.00 91 1014.4
20260905045520 79 0 0.0 0.0 0.00 0.00 0.00 91 1014.5
20260905045020 79 0 0.0 0.0 0.00 0.00 0.00 90 1014.5
20260905044016 79 0 0.0 0.0 0.00 0.00 0.00 90 1014.3
20260905043516 79 0 0.0 0.0 0.00 0.00 0.00 89 1014.3
20260905043034 80 0 0.0 0.0 0.00 0.00 0.00 89 1014.3
20260905042520 80 0 0.0 0.0 0.00 0.00 0.00 89 1014.3
20260905041537 80 0 0.0 0.0 0.00 0.00 0.00 89 1014.4
20260905041020 80 0 0.0 0.0 0.00 0.00 0.00 89 1014.4
20260905040521 80 0 0.0 0.0 0.00 0.00 0.00 89 1014.3
20260905035518 80 0 0.0 0.0 0.00 0.00 0.00 89 1014.6
20260905035018 81 0 0.0 0.0 0.00 0.00 0.00 89 1014.5
20260905034534 81 0 0.0 0.0 0.00 0.00 0.00 88 1014.5
20260905034019 81 0 0.0 0.0 0.00 0.00 0.00 88 1014.5
20260905033517 81 0 0.0 0.0 0.00 0.00 0.00 88 1014.6
20260905033048 81 0 0.0 0.0 0.00 0.00 0.00 88 1014.6
20260905032521 81 0 0.0 0.0 0.00 0.00 0.00 87 1014.6
20260905031537 81 0 0.0 0.0 0.00 0.00 0.00 87 1014.7
20260905031019 82 0 0.0 0.0 0.00 0.00 0.00 86 1014.6
20260905030517 82 0 0.0 0.0 0.00 0.00 0.00 86 1014.7
20260905030034 82 0 0.0 0.0 0.00 0.00 0.00 86 1014.7
20260905025519 82 0 0.0 0.0 0.00 0.00 0.00 86 1014.7
20260905025018 82 0 0.0 0.0 0.00 0.00 0.00 86 1014.7
20260905024536 82 0 0.0 0.0 0.00 0.00 0.00 86 1014.7
20260905024019 82 0 0.0 0.0 0.00 0.00 0.00 85 1014.6
20260905023521 82 0 0.0 0.0 0.00 0.00 0.00 84 1014.6
20260905023040 83 0 0.0 0.0 0.00 0.00 0.00 84 1014.4
20260905022520 83 0 0.0 0.0 0.00 0.00 0.00 84 1014.6
20260905021538 83 0 0.0 0.0 0.00 0.00 0.00 83 1014.5
20260905021024 83 0 0.0 0.0 0.00 0.00 0.00 83 1014.5
20260905020519 83 0 0.0 0.0 0.00 0.00 0.00 83 1014.4
20260905020037 83 0 0.0 0.0 0.00 0.00 0.00 82 1014.4
20260905015516 83 0 0.0 0.0 0.00 0.00 0.00 82 1014.3
20260905015016 84 0 0.0 0.0 0.00 0.00 0.00 82 1014.2
20260905014535 84 0 0.0 0.0 0.00 0.00 0.00 82 1014.1
20260905014017 84 0 0.0 0.0 0.00 0.00 0.00 81 1014.1
20260905013520 84 0 0.0 0.0 0.00 0.00 0.00 81 1014.0
20260905012519 85 0 0.0 0.0 0.00 0.00 0.00 80 1013.9
20260905011018 86 0 0.0 0.0 0.00 0.00 0.00 79 1013.6
20260905010516 86 0 0.0 0.0 0.00 0.00 0.00 78 1013.5
20260905010036 86 0 0.0 0.0 0.00 0.00 0.00 76 1013.5
20260905005515 86 0 0.0 0.0 0.00 0.00 0.00 76 1013.5
20260905005021 87 0 0.0 0.0 0.00 0.00 0.00 76 1013.5
20260905004536 87 0 0.0 0.0 0.00 0.00 0.00 76 1013.3
20260905004020 88 0 0.0 0.0 0.00 0.00 0.00 74 1013.4
20260905003522 88 0 0.0 0.0 0.00 0.00 0.00 73 1013.2
20260905002519 89 0 0.0 0.0 0.00 0.00 0.00 72 1013.3
20260905001016 90 0 0.0 0.0 0.00 0.00 0.00 70 1013.4
20260905000517 90 0 0.0 0.0 0.00 0.00 0.00 69 1013.3
20260905000034 90 0 0.0 0.0 0.00 0.00 0.00 69 1013.3
20260904235515 91 0 0.0 0.0 0.00 0.00 0.00 68 1013.5
20260904235015 91 0 0.0 0.0 0.00 0.00 0.00 67 1013.5